GFSNGP_sfc_thetae_057.txt.gz
Theta_e
291 292 291 290 290 291 290 292 287 291 290 293 299 302 305 307 307 308 308 310 313 316 332 335 334 338 339 339 340 340 338 338 338 339 338 337 337 338 338 337 336 334 333 332
289 292 292 289 292 292 292 292 291 293 293 300 302 304 303 304 305 306 308 309 312 316 330 332 332 335 336 337 338 338 337 335 334 335 336 337 338 338 337 335 335 333 334 335
285 291 291 287 290 292 292 293 292 289 295 300 300 301 303 305 306 306 308 309 313 316 322 335 333 337 335 337 338 336 333 331 333 334 335 335 336 336 335 337 339 336 336 335
286 288 279 290 297 297 295 296 296 297 300 301 302 305 306 308 308 308 309 310 314 320 322 337 335 335 337 337 335 331 331 331 332 333 334 335 334 334 336 338 337 338 336 335
283 283 287 289 293 293 292 293 299 298 300 301 304 305 306 310 311 311 311 312 318 323 327 338 335 335 336 335 332 329 329 331 332 333 333 333 333 335 340 337 338 336 335 335
286 282 279 290 295 299 298 287 298 298 298 299 301 295 305 314 315 312 315 319 320 324 330 338 336 337 336 333 330 328 329 331 333 333 334 333 335 336 337 337 337 336 333 335
285 284 288 294 296 298 285 289 299 300 301 299 297 303 308 312 314 317 317 318 321 324 328 336 336 336 334 332 328 330 331 332 333 334 335 337 338 338 337 335 335 336 333 334
287 284 282 299 297 289 297 301 299 300 300 299 303 303 307 310 311 314 316 319 322 325 334 336 336 335 334 330 329 331 331 331 333 334 333 334 337 338 335 335 332 333 331 331
290 291 300 302 300 301 301 297 298 299 303 302 301 302 305 308 312 313 317 321 325 327 334 334 337 336 332 330 330 331 331 331 334 334 334 335 334 334 331 333 331 330 330 325
293 298 299 301 303 301 300 299 300 301 301 301 301 302 306 309 312 314 318 322 326 330 332 332 335 336 334 330 330 330 330 331 334 332 331 334 333 336 334 332 329 327 327 325
295 297 299 299 301 301 300 301 301 302 302 301 301 306 308 310 312 315 320 325 329 332 332 333 335 335 333 329 331 331 331 330 331 330 334 334 334 332 334 334 326 333 330 326
291 299 298 299 302 302 301 298 300 299 300 304 304 304 308 310 312 316 320 323 330 332 335 334 335 333 330 330 331 332 330 329 329 329 330 331 331 329 297 299 298 299 302 316
300 302 302 303 303 303 299 299 302 303 305 303 307 309 310 314 316 318 323 322 327 330 333 336 333 330 328 331 332 331 331 332 329 327 328 328 329 329 326 314 298 296 296 299
304 303 299 301 298 303 301 302 304 309 312 310 311 313 315 316 316 319 323 327 332 332 335 333 332 328 328 330 332 331 331 312 329 330 329 327 330 329 327 325 324 325 301 305
302 303 301 303 302 302 302 302 302 305 312 311 313 311 315 313 315 323 328 331 332 333 332 330 327 327 329 330 332 331 330 329 329 330 329 325 329 330 328 327 325 323 322 308
303 302 301 300 300 301 300 299 300 303 311 314 315 316 319 323 326 320 322 329 332 327 328 327 325 327 328 331 332 330 330 314 317 329 329 329 329 327 328 327 326 326 324 324
299 298 298 298 299 300 300 299 300 300 305 307 312 313 313 314 317 317 317 321 324 323 324 325 325 328 327 330 333 329 329 328 310 329 328 328 328 327 328 328 327 327 327 323
304 302 302 301 300 300 299 298 299 299 301 305 306 309 308 308 308 314 317 320 320 316 316 321 318 320 332 330 330 329 328 327 329 328 328 328 327 330 330 330 329 328 329 319
304 302 302 302 302 302 298 297 297 298 299 302 301 299 302 306 306 307 306 307 307 307 306 315 305 320 336 323 323 328 327 326 327 328 328 315 325 326 327 329 328 330 328 324
303 302 302 302 302 302 299 297 297 296 297 298 299 297 296 297 304 305 300 296 296 297 303 308 318 324 331 328 314 328 327 327 326 327 327 328 327 327 325 314 325 329 327 327
303 302 302 302 301 301 301 297 295 294 295 295 294 294 296 295 294 300 301 296 295 293 298 298 307 313 321 318 325 332 326 327 326 326 326 326 327 327 327 326 325 327 327 327
304 303 302 302 301 300 300 298 295 294 293 293 294 293 293 294 297 293 293 292 293 288 295 297 297 291 304 303 318 327 330 328 327 328 327 327 325 322 323 326 326 324 322 322
305 304 303 302 300 300 299 298 296 293 292 292 291 292 292 294 294 292 289 292 291 290 294 293 289 289 292 310 311 310 311 315 317 317 316 316 314 313 312 312 312 312 311 310
305 304 304 304 302 300 297 296 297 294 292 292 292 292 290 294 294 295 295 290 289 290 290 289 289 289 292 300 301 301 302 302 302 302 303 298 305 304 303 302 302 302 301 299
306 305 304 303 302 300 298 297 296 295 293 291 291 292 292 292 293 294 296 296 290 293 293 288 288 289 293 295 294 294 295 296 296 296 296 296 295 295 295 296 297 297 296 295
307 304 304 304 303 302 300 297 293 294 294 291 291 292 293 293 293 295 294 293 295 293 293 292 291 292 291 291 292 292 292 292 292 293 293 293 293 293 293 293 293 293 293 293
306 298 304 302 302 301 300 298 295 292 292 292 291 293 293 293 292 293 292 295 295 295 295 293 292 290 291 291 291 291 291 291 290 291 291 291 291 292 291 291 292 292 292 293

GFSNGP_sfc_thetae_060.txt.gz
Theta_e
290 291 292 290 290 292 290 290 286 288 289 292 295 296 299 303 306 306 307 309 312 316 329 335 336 337 340 340 342 342 340 340 341 342 342 341 339 339 339 340 338 336 335 333
288 291 291 289 292 292 292 292 291 291 290 297 299 300 301 303 304 304 306 308 310 315 329 334 334 333 339 339 339 340 337 337 340 338 337 337 338 339 340 338 338 334 334 332
283 289 289 285 290 291 291 294 293 289 294 299 298 299 301 304 305 306 307 308 310 315 321 333 332 334 334 335 336 338 337 336 335 335 335 336 338 337 337 339 336 335 337 336
285 288 278 289 296 295 292 295 297 297 298 300 300 303 304 306 306 308 309 309 311 316 333 334 334 335 335 334 334 335 333 331 333 334 334 335 335 336 337 337 337 338 336 335
284 283 287 289 294 293 292 292 298 297 299 300 302 304 304 311 313 314 312 313 313 319 333 336 334 335 334 332 334 331 330 330 332 335 334 334 333 335 338 336 336 335 335 333
286 281 279 291 295 298 296 287 300 299 296 297 299 294 299 309 309 312 316 316 316 321 329 337 335 336 334 332 331 329 329 330 332 334 334 331 333 337 337 337 336 337 334 334
285 283 288 296 297 298 285 289 298 299 298 298 297 300 305 308 308 311 312 316 319 320 328 333 336 335 333 330 329 330 331 331 334 335 333 336 336 338 336 335 335 334 332 331
288 284 282 300 297 288 296 300 299 299 300 298 301 303 304 305 307 309 311 314 316 320 325 336 335 335 333 331 332 331 331 332 335 334 332 335 336 335 336 335 333 332 330 330
289 291 301 302 300 300 303 300 299 298 300 300 301 301 303 304 306 308 311 315 317 321 330 335 335 334 332 333 331 331 332 333 334 335 333 334 335 335 332 333 330 330 328 327
294 297 298 301 304 303 303 301 301 301 300 301 300 302 303 304 305 308 312 314 319 320 331 331 334 335 334 332 331 330 333 333 334 333 332 334 335 335 331 332 329 329 326 325
295 299 300 300 302 303 302 302 301 300 300 300 302 302 303 304 306 309 313 316 322 325 333 332 332 333 335 331 331 332 334 333 333 332 331 334 325 325 333 319 320 327 331 325
292 300 300 299 303 303 300 298 299 299 299 301 302 303 304 304 309 312 313 316 321 326 332 331 335 334 331 330 333 333 331 332 331 330 333 331 328 321 296 298 296 296 303 320
297 302 303 303 304 303 300 298 298 299 301 301 304 305 305 306 309 311 315 317 322 325 330 333 336 333 331 330 334 333 330 331 328 329 329 329 329 327 321 309 296 295 296 299
305 303 299 301 299 302 300 299 300 302 305 309 308 308 307 307 310 312 316 320 324 326 331 332 334 331 329 330 333 332 334 314 328 326 330 329 328 328 325 323 322 318 299 302
303 303 302 302 302 301 301 298 297 299 303 309 310 309 310 310 313 317 320 324 327 329 332 333 333 327 328 331 332 331 332 329 329 326 327 326 328 328 325 324 323 320 315 305
302 301 301 300 300 301 298 295 295 297 302 312 312 313 313 314 316 319 325 328 329 331 331 330 328 327 328 332 332 331 331 316 316 327 326 330 329 326 327 326 325 323 322 317
298 297 298 299 300 299 295 295 295 296 302 306 309 312 315 318 317 317 317 319 320 321 323 323 327 328 329 333 332 329 329 328 308 328 327 328 329 329 329 327 326 324 324 318
303 301 301 301 300 299 296 294 295 296 299 301 302 305 305 305 304 304 311 316 317 313 312 320 316 324 331 333 332 329 328 326 327 326 327 328 329 330 331 329 328 326 325 313
302 300 301 301 301 299 296 294 295 295 297 299 299 297 299 302 302 301 303 301 300 301 301 309 301 324 335 325 325 329 327 326 327 325 327 315 325 330 331 329 327 327 324 320
302 302 301 301 301 298 295 295 294 294 294 296 297 294 293 294 302 301 299 296 295 296 302 303 317 321 324 324 311 328 327 326 326 324 326 325 326 327 328 316 328 326 324 323
302 302 300 300 299 299 296 294 293 292 294 294 294 295 294 293 292 294 296 295 295 296 300 298 300 300 316 313 326 329 326 325 325 324 325 326 325 325 328 327 327 326 326 327
303 302 300 300 299 298 298 295 294 292 292 292 294 294 293 293 293 292 291 293 293 290 296 298 297 294 298 299 318 318 323 327 326 323 323 325 325 323 323 321 320 321 320 318
303 303 302 300 299 298 298 296 293 292 291 291 290 293 293 292 292 290 289 292 292 289 293 292 291 292 295 308 309 309 309 315 318 317 315 313 311 311 312 312 311 310 309 307
304 304 302 302 301 297 295 296 294 293 292 292 292 293 293 293 293 294 293 290 288 290 289 289 290 290 292 299 301 301 301 300 301 304 304 299 305 304 303 303 302 302 302 301
305 304 303 302 300 297 296 296 295 293 292 292 292 292 295 295 294 294 295 293 289 291 292 288 288 289 293 293 294 295 295 296 296 297 297 296 296 295 296 296 296 296 296 295
305 303 302 302 301 299 297 295 293 293 293 291 293 293 293 296 295 295 294 292 293 291 292 292 292 293 292 291 291 292 292 292 293 294 294 294 294 294 294 293 293 293 292 292
306 297 303 301 300 299 297 295 294 293 293 293 292 294 294 295 295 294 293 294 294 294 293 293 293 292 292 292 291 292 292 291 291 292 292 292 292 292 292 292 291 291 291 291

GFSNGP_sfc_thetae_063.txt.gz
Theta_e
289 290 290 289 288 289 287 287 284 287 288 292 294 295 297 300 302 302 302 304 305 306 321 325 328 332 336 338 339 340 339 338 337 337 335 334 332 331 330 330 330 329 328 327
286 290 289 287 289 290 290 290 289 290 290 297 298 299 299 300 301 301 303 305 304 307 312 327 328 329 334 336 337 338 336 336 337 335 333 331 330 329 329 328 328 326 326 327
282 288 287 282 287 289 291 292 290 287 291 297 297 298 298 300 302 305 309 309 306 307 319 324 328 328 333 334 336 336 335 336 335 332 331 329 330 330 328 327 329 328 326 324
282 284 275 287 293 294 292 293 292 294 296 296 297 299 301 303 305 304 306 308 309 306 315 325 330 328 334 335 334 335 334 333 331 331 330 329 329 327 330 325 328 328 328 323
279 278 285 288 293 291 289 288 296 294 296 297 298 298 299 307 304 303 305 307 309 312 319 326 330 331 331 332 332 331 328 328 330 331 329 327 327 328 327 325 324 324 326 322
282 276 273 287 296 297 294 282 296 295 294 295 296 290 293 301 303 303 306 307 308 312 314 329 327 329 329 329 328 326 326 327 331 331 329 326 326 327 326 326 326 327 326 324
282 280 284 295 297 297 283 283 296 295 295 294 293 296 299 301 303 304 305 306 309 311 312 320 329 322 328 327 325 325 327 327 331 331 330 330 330 328 326 326 325 324 324 323
285 282 278 299 296 288 291 296 296 296 296 295 297 299 299 301 302 303 304 306 308 309 311 317 327 330 328 329 323 326 326 330 331 330 332 332 329 326 326 325 323 322 322 322
287 286 297 300 298 298 299 297 297 297 297 298 298 299 299 300 302 303 304 305 307 308 310 314 326 331 329 330 324 328 329 328 328 328 330 328 327 326 326 324 324 321 321 322
290 295 297 299 301 301 301 300 299 299 299 299 299 299 300 300 301 303 304 304 307 309 311 318 329 332 332 333 328 330 327 327 328 328 327 329 328 326 326 323 324 322 321 322
292 296 298 299 300 301 301 300 299 299 299 298 299 299 300 301 302 303 303 305 308 310 318 323 330 332 334 333 330 328 327 327 327 327 326 315 310 310 320 311 316 323 321 323
290 297 296 296 301 302 300 299 299 298 297 298 298 299 301 302 303 303 303 305 308 312 321 324 331 330 333 331 330 328 327 326 326 327 323 319 315 312 296 295 295 303 308 315
297 300 300 301 302 303 300 300 299 298 298 298 300 300 301 302 303 304 305 307 309 313 319 325 329 331 334 329 331 329 326 326 325 326 324 321 318 316 312 306 296 294 295 300
303 302 298 299 297 301 301 299 297 297 298 300 302 303 303 303 304 305 305 307 311 314 323 324 329 331 334 328 331 328 327 314 327 327 327 325 323 319 317 316 313 309 298 298
301 299 297 299 301 300 300 296 294 294 297 300 306 307 306 304 303 305 308 311 314 320 324 326 329 332 329 329 326 326 326 325 326 327 326 323 326 322 321 320 314 310 308 302
299 298 298 298 299 298 296 293 291 294 296 305 308 306 305 306 307 309 316 320 319 320 325 327 330 331 327 327 326 324 322 312 318 327 324 324 325 321 320 320 315 313 313 310
295 294 296 296 298 295 292 291 293 294 298 301 305 309 312 312 314 317 317 315 313 315 315 316 316 318 328 327 325 323 320 317 308 326 324 325 323 321 321 320 318 318 314 312
298 298 298 298 296 293 292 293 294 294 295 299 301 304 304 303 302 304 303 309 313 310 307 309 307 305 312 327 325 323 321 322 324 324 324 325 324 324 323 321 320 319 315 308
299 299 299 299 298 296 294 292 293 294 295 296 296 295 299 301 300 299 300 301 302 305 299 304 298 308 322 313 320 322 320 323 321 321 323 313 321 325 323 322 321 319 316 314
299 299 299 299 299 296 293 294 293 293 294 296 295 293 292 293 298 299 298 294 294 296 300 301 302 306 315 317 311 322 320 320 322 321 323 324 326 325 326 312 321 319 317 316
300 299 298 297 297 297 294 294 292 291 292 294 293 293 292 292 292 295 294 292 292 292 297 299 302 303 308 309 317 323 322 319 320 319 322 324 322 325 325 324 322 320 317 317
301 299 298 298 296 295 294 293 293 292 292 293 294 293 292 291 293 292 292 290 291 291 295 298 299 294 298 299 310 317 318 318 317 319 321 320 319 319 320 319 317 313 309 307
300 300 299 297 296 295 294 293 293 292 291 291 292 293 292 292 291 289 288 291 292 292 294 294 293 293 292 302 302 302 304 308 308 307 306 308 309 308 307 305 303 303 303 302
300 300 299 298 296 295 293 292 293 293 292 292 292 293 293 292 291 292 292 290 290 290 289 290 292 292 293 296 297 298 298 299 299 300 300 296 300 300 299 299 298 297 296 296
301 300 299 298 295 293 294 294 293 292 292 292 292 294 294 294 292 292 293 292 289 292 292 289 289 290 292 293 293 294 294 294 296 296 297 295 294 294 293 293 292 292 292 292
299 297 297 297 296 295 294 293 291 292 292 292 292 293 294 294 294 294 293 292 293 291 292 292 292 292 292 291 291 291 292 292 292 292 292 293 293 293 292 292 291 290 289 289
301 297 296 295 295 295 294 293 293 292 292 292 292 294 294 294 293 293 292 293 293 292 292 292 292 290 290 290 290 290 290 290 290 291 291 291 291 290 290 290 289 289 289 288

GFSNGP_sfc_thetae_069.txt.gz
Theta_e
286 288 288 287 287 288 286 286 281 284 284 288 291 293 296 300 301 302 301 306 305 304 305 307 309 319 323 325 330 333 334 333 333 335 334 335 336 336 335 336 335 335 332 330
284 288 288 286 288 288 289 288 287 287 286 292 295 296 298 299 300 301 302 303 303 303 304 306 309 318 321 326 333 335 334 333 333 333 333 332 332 332 332 332 331 330 328 327
280 286 285 281 286 287 287 289 288 284 288 293 293 295 295 296 297 300 301 301 301 302 304 305 310 320 321 322 334 334 333 333 332 333 332 331 331 331 329 327 326 324 323 323
282 281 274 284 293 294 290 291 291 290 292 294 294 296 297 298 299 298 300 300 301 303 303 305 315 319 322 325 330 332 332 331 331 331 330 330 328 326 322 323 323 321 320 321
280 278 282 285 291 291 287 287 292 292 293 294 296 296 295 299 299 299 300 301 301 302 304 304 312 318 321 323 323 331 331 330 331 331 328 327 325 323 321 321 320 319 319 316
282 278 271 282 294 296 292 283 293 294 292 292 294 288 293 298 300 300 301 302 301 302 304 303 306 316 318 321 322 321 330 330 330 330 328 325 324 322 320 323 321 321 319 318
282 280 282 290 295 297 283 283 294 294 295 293 292 294 298 299 299 300 301 301 302 302 301 303 307 315 317 320 321 322 331 331 330 328 326 325 323 323 321 321 320 318 315 313
284 281 278 297 294 286 290 292 297 298 297 296 297 297 298 298 299 299 300 301 301 301 302 305 307 317 319 318 321 323 325 328 325 324 326 325 322 324 324 322 320 316 314 312
285 282 291 295 295 297 297 298 298 297 297 298 297 297 297 297 298 299 299 300 302 302 303 304 308 317 319 319 322 322 326 325 324 324 324 324 322 321 321 321 320 319 317 315
285 289 291 293 296 299 300 299 300 299 297 298 297 297 297 297 298 298 299 299 301 302 302 303 309 318 321 324 322 324 325 325 324 323 322 324 324 323 321 320 320 320 319 315
286 290 293 295 297 300 300 300 299 300 299 298 298 298 297 298 299 299 299 299 300 302 302 305 309 318 322 323 326 324 325 324 323 323 323 317 309 314 321 319 319 321 320 319
285 292 292 293 298 300 298 299 298 297 296 297 297 298 300 299 299 299 298 299 300 302 304 306 312 316 320 321 324 327 325 324 324 321 319 315 313 308 295 295 297 300 304 314
292 297 297 299 301 301 297 297 297 295 295 295 297 297 297 296 297 299 299 299 300 303 305 308 312 315 324 325 325 328 325 323 321 317 319 317 316 315 310 302 294 293 297 301
299 299 296 296 294 297 297 297 296 294 294 294 294 295 296 296 298 299 299 300 302 304 306 308 313 318 324 328 328 327 324 309 322 320 318 317 315 314 314 313 312 310 296 297
300 299 294 296 296 297 297 294 292 291 292 294 296 296 297 297 298 300 301 302 303 305 307 310 313 322 326 329 327 326 323 323 323 320 318 314 315 315 313 313 313 308 305 299
299 296 296 295 294 295 293 291 289 290 292 294 297 301 302 300 301 303 302 304 304 304 308 315 321 325 327 327 326 325 325 308 315 319 317 316 316 314 314 314 313 314 314 309
294 293 294 294 294 291 290 289 290 290 293 295 297 303 302 301 302 302 303 305 309 314 317 317 321 322 320 327 326 326 324 320 304 320 320 318 317 314 314 314 314 314 313 309
296 296 297 296 293 289 289 291 292 292 293 295 297 303 304 304 303 304 307 310 309 308 309 311 314 319 321 323 325 325 324 320 322 321 321 319 318 316 314 314 314 312 312 304
297 297 297 296 295 292 291 291 290 293 293 294 294 294 297 298 298 298 299 299 299 304 299 303 303 312 318 304 308 323 325 323 322 322 321 307 316 316 314 314 313 312 312 310
297 298 296 296 296 293 291 292 291 292 293 293 293 293 291 292 295 297 296 292 292 293 297 303 308 311 313 306 300 322 322 323 322 321 318 318 317 316 314 306 312 312 311 312
296 296 295 295 295 294 293 293 292 291 292 292 291 290 292 291 291 292 293 291 291 290 296 296 300 305 307 302 311 316 318 322 321 320 319 319 317 317 316 315 314 313 312 309
296 295 294 294 294 293 294 293 293 292 292 292 292 291 291 290 292 292 290 289 290 287 293 296 298 294 301 298 306 309 312 316 317 321 321 321 319 317 316 315 314 311 305 301
296 295 295 293 293 293 294 293 293 292 291 291 290 291 291 290 290 289 287 291 290 288 292 292 290 292 295 302 301 300 300 303 306 308 316 318 317 314 310 308 304 301 298 296
295 295 294 294 294 293 291 292 293 293 292 292 292 292 291 290 290 292 291 289 288 289 289 288 290 292 294 299 298 298 297 296 297 299 300 299 303 303 301 297 295 295 293 291
295 294 294 293 292 292 292 293 293 293 292 292 292 292 292 292 290 290 291 291 288 289 290 288 288 290 295 294 294 294 294 296 296 294 294 295 295 296 295 294 293 290 289 289
293 292 292 292 292 293 293 293 292 292 292 291 292 292 292 292 292 291 290 289 289 289 289 289 289 288 288 289 290 290 291 290 291 290 290 292 292 292 290 290 291 289 289 289
295 292 292 291 292 292 293 292 292 291 292 292 291 292 292 292 291 290 289 289 289 288 288 288 288 287 287 287 287 286 286 287 288 288 288 288 287 287 287 287 287 287 287 286

GFSNGP_sfc_thetae_072.txt.gz
Theta_e
286 287 287 286 286 287 285 285 282 284 284 287 290 291 294 297 299 299 299 303 304 302 303 302 303 306 307 317 324 322 321 323 326 330 332 334 334 335 336 337 338 337 336 335
283 287 286 284 286 287 287 287 287 287 286 294 294 295 296 296 297 297 300 301 302 303 303 303 304 304 307 318 323 331 328 326 331 333 334 335 336 336 336 336 336 335 334 333
278 284 284 280 285 286 287 288 288 283 288 291 293 294 294 295 297 298 299 299 300 301 303 304 304 305 306 319 326 332 331 332 333 334 333 334 335 335 334 334 333 332 331 331
280 283 275 284 289 292 289 290 290 290 291 293 294 296 295 298 298 297 299 300 300 301 301 303 304 307 309 318 323 331 332 332 333 333 332 333 334 333 333 330 330 330 329 328
280 277 281 285 288 289 286 287 293 291 292 295 295 295 296 300 299 299 300 301 301 302 302 303 303 306 308 317 321 328 331 331 332 332 331 332 331 328 328 327 327 326 325 322
283 276 271 282 291 294 291 283 292 293 292 292 294 289 293 299 301 301 301 301 301 302 302 302 304 305 307 316 320 321 330 331 331 330 330 329 327 326 326 327 324 323 320 321
282 279 282 289 294 295 281 282 291 293 294 293 292 295 298 300 299 300 301 301 303 302 301 302 304 305 310 319 319 322 328 331 330 329 327 326 325 325 324 323 321 319 317 317
283 280 276 296 294 286 289 293 294 295 296 297 298 298 298 299 299 299 300 300 301 300 300 302 304 306 311 316 322 324 324 326 329 327 326 326 324 324 322 320 317 316 315 313
284 281 291 295 293 295 294 293 296 297 299 299 297 297 298 298 299 298 299 299 300 299 299 301 305 307 312 318 322 323 324 327 325 326 326 325 324 322 321 320 317 316 315 313
284 288 289 291 295 297 298 298 298 299 299 298 296 298 298 298 298 298 299 300 301 299 298 299 305 307 315 322 322 321 319 321 325 323 323 324 324 323 322 320 320 318 317 315
285 288 291 293 296 297 296 298 300 299 298 297 297 297 297 297 298 298 300 301 301 299 299 300 305 307 317 322 322 321 319 324 323 323 322 314 306 314 323 321 320 321 319 318
285 291 291 292 296 298 297 298 297 297 296 296 295 293 294 294 297 299 299 299 298 299 300 301 305 311 315 322 320 320 323 322 322 321 318 315 314 309 294 297 299 302 304 314
292 297 297 297 298 299 295 294 295 296 295 293 294 293 293 293 295 298 298 298 298 298 300 302 306 310 316 323 323 324 323 322 320 318 318 317 317 317 310 301 295 295 298 301
299 299 296 296 293 296 295 296 295 294 294 293 293 294 294 294 295 296 296 298 300 300 302 304 307 311 320 324 326 326 323 308 321 320 320 319 319 318 317 317 316 312 297 298
297 300 299 297 297 296 296 292 290 289 291 292 294 294 296 296 295 297 298 300 302 302 303 304 307 312 324 328 327 324 323 322 321 320 319 315 317 317 317 317 316 310 306 299
296 298 296 295 294 295 290 290 288 289 290 292 294 296 299 302 299 299 300 302 301 300 303 306 310 322 325 328 326 324 322 306 313 318 317 317 317 316 315 314 313 315 313 308
294 292 293 292 293 291 287 290 290 290 291 293 294 297 302 300 300 301 302 303 303 305 308 314 320 322 322 328 326 324 321 318 302 319 319 318 317 317 316 316 316 315 312 308
296 296 296 294 293 289 289 289 289 290 292 293 295 297 299 300 301 303 304 305 309 307 304 304 310 316 327 327 326 325 322 320 322 320 319 318 316 317 317 315 314 313 311 304
297 296 295 295 293 288 288 288 290 291 293 293 294 293 293 296 297 297 297 296 296 300 299 301 299 307 316 309 320 324 323 323 322 321 319 307 315 315 315 315 314 313 313 314
297 297 295 295 295 292 290 290 291 291 292 292 292 292 291 291 294 296 294 290 291 291 294 301 306 313 316 310 308 325 324 323 322 319 319 318 316 315 314 306 313 313 313 314
298 296 295 294 294 292 291 289 291 290 292 292 291 291 291 292 290 290 291 290 290 290 294 296 301 305 310 307 314 324 324 323 321 319 319 318 316 316 313 313 313 313 313 307
297 294 294 293 293 292 291 292 292 292 291 291 291 291 290 289 291 291 289 288 290 287 293 295 297 292 299 296 311 317 321 321 321 321 320 319 318 316 315 313 312 309 304 302
294 294 294 293 293 293 293 293 292 292 290 290 289 289 289 289 289 287 286 288 290 288 291 292 289 291 291 302 302 304 308 311 313 320 320 319 317 315 312 308 304 301 299 297
294 293 293 294 294 293 291 293 293 293 292 291 291 290 289 288 288 291 290 288 287 288 287 287 289 291 294 297 298 298 299 301 304 304 303 299 303 300 299 298 294 293 292 290
295 293 292 292 291 291 292 293 293 292 292 291 291 291 291 291 288 288 289 289 287 288 288 287 287 291 295 295 294 293 293 295 297 299 299 298 296 295 293 292 292 290 290 289
296 292 291 291 291 292 293 293 291 291 291 290 290 291 290 291 290 289 289 287 288 286 287 288 288 288 289 291 291 291 290 290 291 291 291 291 290 290 290 290 289 289 288 287
294 293 292 292 291 292 292 292 291 289 290 290 289 290 290 289 289 288 287 288 287 287 287 287 287 287 287 287 287 287 286 287 287 288 288 288 288 286 285 285 285 285 285 284

GFSNGP_sfc_thetae_075.txt.gz
Theta_e
289 290 289 288 288 288 287 289 284 287 288 292 295 297 299 301 303 302 303 303 304 304 305 305 306 308 310 309 310 311 309 314 330 331 333 335 337 340 344 344 344 345 345 347
285 289 289 287 289 290 289 290 289 289 289 297 299 300 299 300 301 301 302 303 304 305 305 305 305 307 308 308 309 310 309 311 327 328 330 335 339 341 343 343 344 345 345 345
281 286 286 283 288 289 290 292 292 288 293 298 297 298 299 301 301 301 302 303 303 304 305 306 307 307 307 308 310 309 308 311 326 328 331 336 338 340 341 341 343 344 345 344
282 284 277 288 294 294 292 293 295 295 296 297 298 300 301 302 302 302 303 303 304 305 305 305 306 306 305 306 306 308 309 316 328 330 333 337 338 337 338 338 341 341 342 344
281 282 286 288 292 292 291 291 296 295 296 297 299 300 300 303 304 304 305 305 305 306 306 305 305 306 305 305 307 308 324 329 330 334 335 334 334 334 335 337 338 340 340 335
284 280 278 288 294 298 296 286 297 296 296 296 298 291 296 303 305 305 306 307 306 306 305 305 305 305 305 307 312 321 330 330 334 335 334 334 334 334 336 338 336 332 332 334
282 280 286 294 295 299 284 288 297 297 297 298 296 298 302 305 305 305 306 306 307 306 304 305 306 306 306 307 313 322 325 332 336 338 337 334 333 335 335 331 328 329 328 332
285 282 280 297 296 289 295 299 298 298 299 299 300 302 303 304 304 304 304 305 306 304 303 306 306 306 305 306 314 324 324 331 333 335 334 333 334 333 329 328 325 328 325 321
288 288 297 299 297 299 299 297 298 298 299 298 298 300 302 301 302 302 303 304 305 303 304 305 306 307 305 307 312 323 328 328 330 332 331 332 331 333 330 328 329 325 323 319
288 291 293 296 298 299 300 299 301 301 300 300 299 301 300 301 300 300 301 301 303 303 303 304 307 305 306 309 319 322 322 326 327 327 327 330 330 331 329 328 327 325 323 321
289 293 293 295 297 299 300 301 301 301 299 298 298 298 299 298 298 298 298 300 302 302 304 304 305 305 307 311 319 322 321 324 324 325 324 318 315 325 329 330 325 325 325 324
285 291 291 292 298 302 300 299 299 298 296 296 296 295 295 295 297 296 296 298 299 303 304 304 305 306 308 312 318 323 325 323 323 320 319 318 319 314 296 300 300 301 306 319
289 294 295 299 302 301 299 298 298 296 294 292 294 294 294 294 295 296 296 296 297 302 303 304 305 304 308 312 322 321 323 325 324 320 322 324 324 321 315 304 295 296 297 298
297 299 296 298 298 300 299 297 294 293 293 293 292 293 294 294 295 295 296 298 300 302 303 304 304 306 310 314 322 324 325 309 323 324 325 325 326 325 323 319 317 314 296 301
296 301 300 299 298 297 296 293 290 290 291 291 293 293 294 295 296 297 300 301 303 303 303 304 305 307 311 314 323 324 324 325 326 326 326 324 327 326 326 324 320 313 309 300
296 299 297 296 295 293 290 291 289 289 290 290 292 294 296 301 304 302 302 302 302 301 304 304 306 309 313 319 327 327 326 308 317 325 324 327 327 327 326 323 320 320 318 307
293 294 295 293 291 290 289 290 290 289 290 292 293 296 298 304 304 303 304 304 305 305 307 308 311 317 323 327 327 326 325 323 307 327 327 328 328 326 325 324 323 318 312 309
296 298 297 295 291 290 290 290 290 290 291 293 294 295 296 298 299 302 305 307 308 308 304 302 306 307 320 327 328 328 326 326 328 328 328 327 326 324 324 321 318 313 312 305
296 298 296 294 291 288 289 288 289 291 292 293 293 293 294 294 298 298 299 298 297 302 298 298 298 312 323 319 324 328 328 328 327 327 326 312 321 322 319 318 316 316 318 318
296 297 296 294 292 290 288 288 290 291 292 293 293 292 292 292 293 296 296 292 292 293 293 300 305 317 322 318 312 329 329 328 327 324 324 321 320 318 317 310 317 318 318 318
296 296 295 294 292 290 290 291 291 289 290 291 290 290 290 292 290 290 290 291 290 290 294 296 302 309 315 319 325 330 329 328 327 325 324 320 316 317 317 318 317 317 314 310
296 295 294 293 293 293 293 292 291 290 289 289 289 290 289 289 289 290 290 288 290 286 294 296 296 293 305 301 330 329 329 328 327 327 325 324 318 315 315 316 313 309 306 305
296 295 294 293 293 293 294 293 291 290 288 289 287 288 288 288 288 286 286 288 290 288 292 294 289 289 294 315 319 319 323 327 327 324 325 324 318 315 310 306 304 302 299 297
297 295 294 295 295 294 291 293 292 292 291 290 289 289 288 287 288 289 290 287 286 288 288 288 289 289 294 302 303 305 308 310 309 307 304 299 304 302 299 296 294 293 292 291
295 297 295 294 293 292 293 293 292 291 291 289 289 289 289 289 287 287 288 288 286 288 288 287 287 290 297 295 295 296 299 300 301 299 297 296 295 294 293 293 292 291 289 289
292 293 296 296 295 294 294 293 291 290 290 288 286 288 289 288 288 287 287 287 287 286 287 287 287 289 291 291 292 293 294 294 294 294 293 292 291 290 290 289 287 286 286 285
291 291 295 297 296 295 294 292 292 290 290 290 288 288 288 288 287 287 286 286 286 286 286 286 286 286 287 288 289 288 289 288 288 288 287 287 286 286 285 285 285 285 284 283